Garrison, ND

9:46 AM CST on December 07, 2016 (GMT -0600)
Garrison

Weather History for KN60 - February, 2014

Change the Weather History Date:

Monday, February 10, 2014

  Actual Average Record
Temperature  
Mean Temperature -6 °F -  
Max Temperature 7 °F - 39 °F (2005)
Min Temperature -19 °F - -22 °F (2008)
Degree Days  
Heating Degree Days 71    
Month to date heating degree days 654  
Cooling Degree Days 0    
Moisture  
Dew Point -11 °F    
Average Humidity 78    
Maximum Humidity 86    
Minimum Humidity 69    
Precipitation  
Precipitation 0.00 in - 0.12 in (2009)
Month to date precipitation 0.00  
Year to date precipitation 0.61  
Sea Level Pressure  
Sea Level Pressure 30.45 in    
Wind  
Wind Speed 4 mph (SSE)    
Max Wind Speed 14 mph    
Max Gust Speed 17 mph    
T = Trace of Precipitation, MM = Missing Value Source: NWS Daily Summary

Daily Weather History Graph

Daily Weather History Graph

Search for Another Location

Airport or City:

Trip Planner

Search our weather history database for the weather conditions in past years. The results will help you decide how hot, cold, wet, or windy it might be!

Date:

Astronomy

Feb. 10, 2014 Rise Set
Actual Time 7:59 AM CST 6:01 PM CST
Civil Twilight 7:27 AM CST 6:33 PM CST
Nautical Twilight 6:50 AM CST 7:09 PM CST
Astronomical Twilight 6:15 AM CST 7:45 PM CST
Moon 2:24 PM CST (2/10) 5:01 AM CST (2/10)
Length of Visible Light 11h 06m
Length of Day
10h 01m
Waxing Gibbous, 85% of the Moon is Illuminated
Feb 10
Waxing Gibbous
Feb 14
Full
Feb 22
Last Quarter
Mar 1
New
Mar 8
First Quarter

Hourly Weather History & Observations

Time (CST) Temp. Windchill Dew Point Humidity Pressure Visibility Wind Dir Wind Speed Gust Speed Precip Events Conditions
12:52 AM -15.0 °F - -20.9 °F 75% 30.53 in - Calm Calm - N/A   Unknown
1:52 AM -18.0 °F - -22.0 °F 82% 30.53 in - Calm Calm - N/A   Unknown
2:52 AM -15.0 °F - -20.0 °F 78% 30.53 in - Calm Calm - N/A   Unknown
3:52 AM -14.1 °F - -20.0 °F 75% 30.53 in - Calm Calm - N/A   Unknown
4:52 AM -16.1 °F - -20.0 °F 82% 30.53 in - Calm Calm - N/A   Unknown
5:52 AM -17.0 °F -27.2 °F -22.0 °F 78% 30.53 in - North 3.5 mph - N/A   Unknown
6:52 AM -16.1 °F -26.2 °F -22.0 °F 74% 30.51 in - NE 3.5 mph - N/A   Unknown
7:52 AM -17.0 °F - -23.1 °F 74% 30.52 in - Calm Calm - N/A   Unknown
8:52 AM -16.1 °F - -20.0 °F 82% 30.53 in - Calm Calm - N/A   Unknown
9:52 AM -11.9 °F - -15.0 °F 86% 30.53 in - Calm Calm - N/A   Unknown
10:52 AM -7.1 °F -15.9 °F -11.0 °F 83% 30.51 in - SE 3.5 mph - N/A   Unknown
11:52 AM -2.9 °F -16.5 °F -8.0 °F 79% 30.50 in - SSE 6.9 mph - N/A   Unknown
12:52 PM -0.0 °F -14.2 °F -5.1 °F 79% 30.48 in - SSE 8.1 mph - N/A   Unknown
1:52 PM 3.9 °F -9.4 °F -2.9 °F 73% 30.46 in - SSE 8.1 mph - N/A   Unknown
2:52 PM 5.0 °F -8.1 °F -2.0 °F 73% 30.43 in - South 8.1 mph - N/A   Unknown
3:52 PM 7.0 °F -7.5 °F -0.9 °F 70% 30.41 in - South 10.4 mph - N/A   Unknown
4:52 PM 7.0 °F -6.6 °F -0.9 °F 70% 30.41 in - South 9.2 mph - N/A   Unknown
5:52 PM 5.0 °F -9.1 °F -2.0 °F 73% 30.39 in - SSE 9.2 mph - N/A   Unknown
6:52 PM 1.0 °F -12.9 °F -4.0 °F 79% 30.39 in - SE 8.1 mph - N/A   Unknown
7:52 PM 1.0 °F -12.9 °F -4.0 °F 79% 30.38 in - SSE 8.1 mph - N/A   Unknown
8:52 PM -0.0 °F -14.2 °F -5.1 °F 79% 30.35 in - SSE 8.1 mph - N/A   Unknown
9:52 PM 1.0 °F -15.8 °F -2.9 °F 83% 30.31 in - South 11.5 mph - N/A   Unknown
10:52 PM 1.0 °F -18.0 °F -2.9 °F 83% 30.26 in - South 15.0 mph - N/A   Unknown
11:52 PM 1.0 °F -14.9 °F -2.9 °F 83% 30.23 in - South 10.4 mph - N/A   Unknown